KI4KAO Weather Reports


time (UTC)temp
F
wind
direction
speed
knots
gust
knots
rain 1hr
in
rain 24hr
in
rain mn
in
humidity
%
barometer
mb
20260504184030 73 180 4.3 7.8 0.00 0.00 0.00 52
20260504183029 74 164 3.5 6.1 0.00 0.00 0.00 50
20260504182029 73 166 4.3 7.0 0.00 0.00 0.00 53
20260504181048 73 145 3.5 7.8 0.00 0.00 0.00 52
20260504180049 71 168 2.6 6.1 0.00 0.00 0.00 53
20260504175029 71 171 2.6 5.2 0.00 0.00 0.00 54
20260504174028 71 137 2.6 4.3 0.00 0.00 0.00 57
20260504173029 71 170 1.7 4.3 0.00 0.00 0.00 54
20260504172029 70 140 2.6 3.5 0.00 0.00 0.00 59
20260504171029 70 164 2.6 4.3 0.00 0.00 0.00 59
20260504151027 60 127 1.7 2.6 0.00 0.00 0.00 87
20260504150107 60 158 0.9 2.6 0.00 0.00 0.00 89
20260504141027 51 0.0 0.0 0.00 0.00 0.00 99
20260504081047 39 0.0 0.0 0.00 0.00 0.00 97
20260504045028 41 0.0 0.0 0.00 0.00 0.00 89
20260504044027 41 0.0 0.0 0.00 0.00 0.00 88
20260504043028 42 0.0 0.0 0.00 0.00 0.00 88
20260504042027 42 0.0 0.0 0.00 0.00 0.00 87
20260504041028 42 0.0 0.0 0.00 0.00 0.00 87
20260504040047 42 0.0 0.0 0.00 0.00 0.00 89
20260504035048 42 0.0 0.0 0.00 0.00 0.00 89
20260504034027 42 0.0 0.0 0.00 0.00 0.00 87
20260504033027 42 0.0 0.0 0.00 0.00 0.00 85
20260504032028 42 0.0 0.0 0.00 0.00 0.00 85
20260504031027 42 0.0 0.0 0.00 0.00 0.00 85
20260504030028 42 0.0 0.0 0.00 0.00 0.00 84
20260504025047 43 0.0 0.0 0.00 0.00 0.00 83
20260504024148 43 0.0 0.0 0.00 0.00 0.00 80
20260504023048 44 0.0 0.0 0.00 0.00 0.00 79
20260504022048 44 0.0 0.0 0.00 0.00 0.00 79
20260504021048 45 0.0 0.0 0.00 0.00 0.00 77
20260504020028 45 0.0 0.0 0.00 0.00 0.00 75
20260504015048 46 0.0 0.0 0.00 0.00 0.00 74
20260504014027 47 0.0 0.0 0.00 0.00 0.00 74
20260504013027 47 0.0 0.0 0.00 0.00 0.00 70
20260504012028 48 0.0 0.0 0.00 0.00 0.00 69
20260504011048 49 0.0 0.0 0.00 0.00 0.00 68
20260504010027 49 0.0 0.0 0.00 0.00 0.00 66
20260504005028 50 0.0 0.0 0.00 0.00 0.00 62
20260504004027 51 0.0 0.0 0.00 0.00 0.00 61
20260504003028 52 0.0 0.0 0.00 0.00 0.00 60
20260504002027 52 0.0 0.0 0.00 0.00 0.00 56
20260504000547 53 0.0 0.0 0.00 0.00 0.00 55
20260503235528 54 307 0.9 1.7 0.00 0.00 0.00 56
20260503234528 55 338 0.0 0.9 0.00 0.00 0.00 54
20260503233528 55 270 0.0 0.9 0.00 0.00 0.00 54
20260503232528 56 264 0.9 2.6 0.00 0.00 0.00 52
20260503231527 57 262 1.7 2.6 0.00 0.00 0.00 49
20260503230528 57 267 1.7 3.5 0.00 0.00 0.00 50
20260503225628 59 272 1.7 2.6 0.00 0.00 0.00 47
20260503224527 60 272 2.6 4.3 0.00 0.00 0.00 39
20260503223527 61 151 1.7 4.3 0.00 0.00 0.00 43
20260503222527 62 224 0.9 2.6 0.00 0.00 0.00 42
20260503221527 63 214 1.7 4.3 0.00 0.00 0.00 32
20260503220547 64 176 1.7 2.6 0.00 0.00 0.00 34
20260503215607 64 193 0.9 2.6 0.00 0.00 0.00 34
20260503214527 66 54 2.6 3.5 0.00 0.00 0.00 30
20260503213548 63 148 2.6 3.5 0.00 0.00 0.00 34
20260503212547 65 227 0.9 2.6 0.00 0.00 0.00 32
20260503211527 64 127 1.7 3.5 0.00 0.00 0.00 33
20260503210527 65 187 2.6 5.2 0.00 0.00 0.00 31
20260503205527 64 164 1.7 4.3 0.00 0.00 0.00 32
20260503204547 64 167 3.5 7.8 0.00 0.00 0.00 31
20260503203527 64 38 1.7 2.6 0.00 0.00 0.00 29
20260503202627 64 352 2.6 5.2 0.00 0.00 0.00 29
20260503201547 64 124 4.3 7.0 0.00 0.00 0.00 29
20260503200527 65 169 2.6 3.5 0.00 0.00 0.00 31
20260503195527 65 120 3.5 5.2 0.00 0.00 0.00 30
20260503194527 64 47 2.6 4.3 0.00 0.00 0.00 29
20260503193526 64 101 2.6 4.3 0.00 0.00 0.00 29
20260503192547 64 336 2.6 5.2 0.00 0.00 0.00 28
20260503191527 63 52 2.6 3.5 0.00 0.00 0.00 26
20260503190527 63 121 2.6 3.5 0.00 0.00 0.00 31
20260503185527 62 59 1.7 3.5 0.00 0.00 0.00 33